Location: Observatory
(52.1446°N, 0.4624°W)
Time: 14:09:12
(UTC+00:00)

ISS - Pass Details

Date: 22 March 2019
Orbit: 408 x 411 km, 51.6° (Epoch: 25 March)

Event Time Altitude Azimuth Distance (km) Brightness Sun altitude
Rises 20:09:20 0° 223° (SW) 2,328 0.3 -17.3°
Reaches altitude 10° 20:11:34 10° 211° (SSW) 1,469 -0.9 -17.6°
Enters shadow 20:13:06 21° 190° (S) 991 -2.0 -17.8°
